Seitenverwaltung

Live am Platz

Die Bilder unserer Webcams werden alle 5 Minuten aktualisiert.

Sonnenaufgang:

05:21 UTC / 07:21 Lokal

Sonnenuntergang:

17:05 UTC / 19:05 Lokal

METAR (01.10.2022 18:20 UTC):

EDNY 011620Z 24009KT 210V270 9999 FEW014 OVC016 12/11 Q1017
MVFR

TAF (01.10.2022 13:00 UTC):

TAF EDNY 011100Z 0112/0212 24009KT 9999 OVC040 TEMPO 0112/0118 RA PROB40 TEMPO 0200/0206 RA BKN012 PROB30 TEMPO 0209/0212 SHRA BKN015CB

Alle Angaben unverbindlich und ohne Gewähr. Zeiten genähert.

Für den Verkehrslandeplatz Konstanz werden keine offiziellen Wetterinformationen ausgegeben. Daher werden zur Orientierung Daten des nahegelegenen Flughafens Friedrichshafen dargestellt.

Das Landeentgelt kann bei uns auch mit aerops bezahlt werden. Die App für's Handy ist kostenfrei erhältlich.